Year,Month,Day,Hour,Minute,Value (Times are PST for temperature in C)
2012,10,03,00,00,10.60
2012,10,03,00,01,10.60
2012,10,03,00,02,10.50
2012,10,03,00,03,10.50
2012,10,03,00,04,10.50
2012,10,03,00,05,10.40
2012,10,03,00,06,10.40
2012,10,03,00,07,10.40
2012,10,03,00,08,10.30
2012,10,03,00,09,10.30
2012,10,03,00,10,10.20
2012,10,03,00,11,10.10
2012,10,03,00,12,10.00
2012,10,03,00,13,10.00
2012,10,03,00,14,9.90
2012,10,03,00,15,10.00
2012,10,03,00,16,10.00
2012,10,03,00,17,10.00
2012,10,03,00,18,10.10
2012,10,03,00,19,10.10
2012,10,03,00,20,10.10
2012,10,03,00,21,10.10
2012,10,03,00,22,10.10
2012,10,03,00,23,10.10
2012,10,03,00,24,10.10
2012,10,03,00,25,10.20
2012,10,03,00,26,10.20
2012,10,03,00,27,10.10
2012,10,03,00,28,10.20
2012,10,03,00,29,10.20
2012,10,03,00,30,10.10
2012,10,03,00,31,10.10
2012,10,03,00,32,10.10
2012,10,03,00,33,10.10
2012,10,03,00,34,10.10
2012,10,03,00,35,10.00
2012,10,03,00,36,10.00
2012,10,03,00,37,9.90
2012,10,03,00,38,9.80
2012,10,03,00,39,9.70
2012,10,03,00,40,9.70
2012,10,03,00,41,9.70
2012,10,03,00,42,9.70
2012,10,03,00,43,9.60
2012,10,03,00,44,9.60
2012,10,03,00,45,9.60
2012,10,03,00,46,9.50
2012,10,03,00,47,9.50
2012,10,03,00,48,9.50
2012,10,03,00,49,9.40
2012,10,03,00,50,9.40
2012,10,03,00,51,9.30
2012,10,03,00,52,9.20
2012,10,03,00,53,9.20
2012,10,03,00,54,9.10
2012,10,03,00,55,9.00
2012,10,03,00,56,9.00
2012,10,03,00,57,8.90
2012,10,03,00,58,8.90
2012,10,03,00,59,8.90
2012,10,03,01,00,8.90
2012,10,03,01,01,8.90
2012,10,03,01,02,8.80
2012,10,03,01,03,8.80
2012,10,03,01,04,8.80
2012,10,03,01,05,8.80
2012,10,03,01,06,8.80
2012,10,03,01,07,8.80
2012,10,03,01,08,8.80
2012,10,03,01,09,8.80
2012,10,03,01,10,8.80
2012,10,03,01,11,8.80
2012,10,03,01,12,8.80
2012,10,03,01,13,8.80
2012,10,03,01,14,8.80
2012,10,03,01,15,8.80
2012,10,03,01,16,8.80
2012,10,03,01,17,8.80
2012,10,03,01,18,8.80
2012,10,03,01,19,8.80
2012,10,03,01,20,8.80
2012,10,03,01,21,8.80
2012,10,03,01,22,8.80
2012,10,03,01,23,8.80
2012,10,03,01,24,8.80
2012,10,03,01,25,8.80
2012,10,03,01,26,8.80
2012,10,03,01,27,8.80
2012,10,03,01,28,8.80
2012,10,03,01,29,8.70
2012,10,03,01,30,8.70
2012,10,03,01,31,8.60
2012,10,03,01,32,8.50
2012,10,03,01,33,8.40
2012,10,03,01,34,8.40
2012,10,03,01,35,8.30
2012,10,03,01,36,8.20
2012,10,03,01,37,8.10
2012,10,03,01,38,8.10
2012,10,03,01,39,8.10
2012,10,03,01,40,8.10
2012,10,03,01,41,8.10
2012,10,03,01,42,8.10
2012,10,03,01,43,8.20
2012,10,03,01,44,8.20
2012,10,03,01,45,8.20
2012,10,03,01,46,8.20
2012,10,03,01,47,8.20
2012,10,03,01,48,8.20
2012,10,03,01,49,8.10
2012,10,03,01,50,8.20
2012,10,03,01,51,8.20
2012,10,03,01,52,8.20
2012,10,03,01,53,8.20
2012,10,03,01,54,8.30
2012,10,03,01,55,8.30
2012,10,03,01,56,8.30
2012,10,03,01,57,8.30
2012,10,03,01,58,8.30
2012,10,03,01,59,8.30
2012,10,03,02,00,8.30
2012,10,03,02,01,8.30
2012,10,03,02,02,8.20
2012,10,03,02,03,8.20
2012,10,03,02,04,8.20
2012,10,03,02,05,8.20
2012,10,03,02,06,8.10
2012,10,03,02,07,8.10
2012,10,03,02,08,8.10
2012,10,03,02,09,8.10
2012,10,03,02,10,8.20
2012,10,03,02,11,8.20
2012,10,03,02,12,8.30
2012,10,03,02,13,8.30
2012,10,03,02,14,8.30
2012,10,03,02,15,8.40
2012,10,03,02,16,8.40
2012,10,03,02,17,8.40
2012,10,03,02,18,8.40
2012,10,03,02,19,8.40
2012,10,03,02,20,8.30
2012,10,03,02,21,8.30
2012,10,03,02,22,8.30
2012,10,03,02,23,8.20
2012,10,03,02,24,8.20
2012,10,03,02,25,8.10
2012,10,03,02,26,8.10
2012,10,03,02,27,8.00
2012,10,03,02,28,8.00
2012,10,03,02,29,7.90
2012,10,03,02,30,7.80
2012,10,03,02,31,7.80
2012,10,03,02,32,7.70
2012,10,03,02,33,7.60
2012,10,03,02,34,7.60
2012,10,03,02,35,7.60
2012,10,03,02,36,7.60
2012,10,03,02,37,7.50
2012,10,03,02,38,7.50
2012,10,03,02,39,7.50
2012,10,03,02,40,7.40
2012,10,03,02,41,7.40
2012,10,03,02,42,7.50
2012,10,03,02,43,7.50
2012,10,03,02,44,7.60
2012,10,03,02,45,7.60
2012,10,03,02,46,7.60
2012,10,03,02,47,7.60
2012,10,03,02,48,7.50
2012,10,03,02,49,7.50
2012,10,03,02,50,7.60
2012,10,03,02,51,7.60
2012,10,03,02,52,7.70
2012,10,03,02,53,7.70
2012,10,03,02,54,7.70
2012,10,03,02,55,7.60
2012,10,03,02,56,7.60
2012,10,03,02,57,7.60
2012,10,03,02,58,7.60
2012,10,03,02,59,7.60
2012,10,03,03,00,7.50
2012,10,03,03,01,7.50
2012,10,03,03,02,7.50
2012,10,03,03,03,7.40
2012,10,03,03,04,7.40
2012,10,03,03,05,7.40
2012,10,03,03,06,7.30
2012,10,03,03,07,7.30
2012,10,03,03,08,7.30
2012,10,03,03,09,7.20
2012,10,03,03,10,7.20
2012,10,03,03,11,7.10
2012,10,03,03,12,7.10
2012,10,03,03,13,7.10
2012,10,03,03,14,7.10
2012,10,03,03,15,7.00
2012,10,03,03,16,7.00
2012,10,03,03,17,7.00
2012,10,03,03,18,7.00
2012,10,03,03,19,7.00
2012,10,03,03,20,7.00
2012,10,03,03,21,6.90
2012,10,03,03,22,6.90
2012,10,03,03,23,6.90
2012,10,03,03,24,6.90
2012,10,03,03,25,6.90
2012,10,03,03,26,6.90
2012,10,03,03,27,6.90
2012,10,03,03,28,6.90
2012,10,03,03,29,6.80
2012,10,03,03,30,6.80
2012,10,03,03,31,6.80
2012,10,03,03,32,6.80
2012,10,03,03,33,6.80
2012,10,03,03,34,6.80
2012,10,03,03,35,6.80
2012,10,03,03,36,6.80
2012,10,03,03,37,6.70
2012,10,03,03,38,6.70
2012,10,03,03,39,6.70
2012,10,03,03,40,6.60
2012,10,03,03,41,6.60
2012,10,03,03,42,6.60
2012,10,03,03,43,6.60
2012,10,03,03,44,6.70
2012,10,03,03,45,6.70
2012,10,03,03,46,6.70
2012,10,03,03,47,6.70
2012,10,03,03,48,6.70
2012,10,03,03,49,6.60
2012,10,03,03,50,6.60
2012,10,03,03,51,6.60
2012,10,03,03,52,6.50
2012,10,03,03,53,6.50
2012,10,03,03,54,6.40
2012,10,03,03,55,6.40
2012,10,03,03,56,6.40
2012,10,03,03,57,6.40
2012,10,03,03,58,6.40
2012,10,03,03,59,6.40
2012,10,03,04,00,6.40
2012,10,03,04,01,6.40
2012,10,03,04,02,6.40
2012,10,03,04,03,6.40
2012,10,03,04,04,6.40
2012,10,03,04,05,6.40
2012,10,03,04,06,6.40
2012,10,03,04,07,6.30
2012,10,03,04,08,6.30
2012,10,03,04,09,6.30
2012,10,03,04,10,6.20
2012,10,03,04,11,6.20
2012,10,03,04,12,6.20
2012,10,03,04,13,6.20
2012,10,03,04,14,6.10
2012,10,03,04,15,6.20
2012,10,03,04,16,6.20
2012,10,03,04,17,6.20
2012,10,03,04,18,6.20
2012,10,03,04,19,6.20
2012,10,03,04,20,6.30
2012,10,03,04,21,6.40
2012,10,03,04,22,6.50
2012,10,03,04,23,6.60
2012,10,03,04,24,6.80
2012,10,03,04,25,6.90
2012,10,03,04,26,7.00
2012,10,03,04,27,7.10
2012,10,03,04,28,7.20
2012,10,03,04,29,7.30
2012,10,03,04,30,7.30
2012,10,03,04,31,7.40
2012,10,03,04,32,7.50
2012,10,03,04,33,7.50
2012,10,03,04,34,7.50
2012,10,03,04,35,7.50
2012,10,03,04,36,7.50
2012,10,03,04,37,7.50
2012,10,03,04,38,7.50
2012,10,03,04,39,7.50
2012,10,03,04,40,7.50
2012,10,03,04,41,7.40
2012,10,03,04,42,7.40
2012,10,03,04,43,7.40
2012,10,03,04,44,7.30
2012,10,03,04,45,7.30
2012,10,03,04,46,7.40
2012,10,03,04,47,7.40
2012,10,03,04,48,7.50
2012,10,03,04,49,7.60
2012,10,03,04,50,7.80
2012,10,03,04,51,7.80
2012,10,03,04,52,7.90
2012,10,03,04,53,7.90
2012,10,03,04,54,8.00
2012,10,03,04,55,8.00
2012,10,03,04,56,8.10
2012,10,03,04,57,8.10
2012,10,03,04,58,8.10
2012,10,03,04,59,8.10
2012,10,03,05,00,8.20
2012,10,03,05,01,8.20
2012,10,03,05,02,8.20
2012,10,03,05,03,8.20
2012,10,03,05,04,8.10
2012,10,03,05,05,8.10
2012,10,03,05,06,8.10
2012,10,03,05,07,8.10
2012,10,03,05,08,8.10
2012,10,03,05,09,8.00
2012,10,03,05,10,8.00
2012,10,03,05,11,7.90
2012,10,03,05,12,7.90
2012,10,03,05,13,7.90
2012,10,03,05,14,7.90
2012,10,03,05,15,7.90
2012,10,03,05,16,8.00
2012,10,03,05,17,7.90
2012,10,03,05,18,7.90
2012,10,03,05,19,7.90
2012,10,03,05,20,7.80
2012,10,03,05,21,7.80
2012,10,03,05,22,7.80
2012,10,03,05,23,7.80
2012,10,03,05,24,7.80
2012,10,03,05,25,7.90
2012,10,03,05,26,7.90
2012,10,03,05,27,8.00
2012,10,03,05,28,8.00
2012,10,03,05,29,8.00
2012,10,03,05,30,8.00
2012,10,03,05,31,8.00
2012,10,03,05,32,8.00
2012,10,03,05,33,8.00
2012,10,03,05,34,8.00
2012,10,03,05,35,8.00
2012,10,03,05,36,7.90
2012,10,03,05,37,7.90
2012,10,03,05,38,7.90
2012,10,03,05,39,7.80
2012,10,03,05,40,7.80
2012,10,03,05,41,7.80
2012,10,03,05,42,7.80
2012,10,03,05,43,7.80
2012,10,03,05,44,7.70
2012,10,03,05,45,7.70
2012,10,03,05,46,7.70
2012,10,03,05,47,7.70
2012,10,03,05,48,7.60
2012,10,03,05,49,7.60
2012,10,03,05,50,7.60
2012,10,03,05,51,7.60
2012,10,03,05,52,7.60
2012,10,03,05,53,7.60
2012,10,03,05,54,7.60
2012,10,03,05,55,7.50
2012,10,03,05,56,7.50
2012,10,03,05,57,7.40
2012,10,03,05,58,7.40
2012,10,03,05,59,7.40
2012,10,03,06,00,7.40
2012,10,03,06,01,7.40
2012,10,03,06,02,7.40
2012,10,03,06,03,7.40
2012,10,03,06,04,7.40
2012,10,03,06,05,7.40
2012,10,03,06,06,7.40
2012,10,03,06,07,7.40
2012,10,03,06,08,7.40
2012,10,03,06,09,7.30
2012,10,03,06,10,7.30
2012,10,03,06,11,7.30
2012,10,03,06,12,7.20
2012,10,03,06,13,7.20
2012,10,03,06,14,7.20
2012,10,03,06,15,7.20
2012,10,03,06,16,7.20
2012,10,03,06,17,7.20
2012,10,03,06,18,7.20
2012,10,03,06,19,7.20
2012,10,03,06,20,7.20
2012,10,03,06,21,7.20
2012,10,03,06,22,7.20
2012,10,03,06,23,7.10
2012,10,03,06,24,7.10
2012,10,03,06,25,7.10
2012,10,03,06,26,7.10
2012,10,03,06,27,7.10
2012,10,03,06,28,7.10
2012,10,03,06,29,7.20
2012,10,03,06,30,7.20
2012,10,03,06,31,7.20
2012,10,03,06,32,7.20
2012,10,03,06,33,7.30
2012,10,03,06,34,7.30
2012,10,03,06,35,7.30
2012,10,03,06,36,7.30
2012,10,03,06,37,7.20
2012,10,03,06,38,7.20
2012,10,03,06,39,7.20
2012,10,03,06,40,7.20
2012,10,03,06,41,7.10
2012,10,03,06,42,7.10
2012,10,03,06,43,7.10
2012,10,03,06,44,7.10
2012,10,03,06,45,7.10
2012,10,03,06,46,7.00
2012,10,03,06,47,7.00
2012,10,03,06,48,7.00
2012,10,03,06,49,7.00
2012,10,03,06,50,7.00
2012,10,03,06,51,7.10
2012,10,03,06,52,7.00
2012,10,03,06,53,7.00
2012,10,03,06,54,7.00
2012,10,03,06,55,6.90
2012,10,03,06,56,6.90
2012,10,03,06,57,6.90
2012,10,03,06,58,6.80
2012,10,03,06,59,6.80
2012,10,03,07,00,6.80
2012,10,03,07,01,6.80
2012,10,03,07,02,6.80
2012,10,03,07,03,6.80
2012,10,03,07,04,6.80
2012,10,03,07,05,6.80
2012,10,03,07,06,6.80
2012,10,03,07,07,6.80
2012,10,03,07,08,6.80
2012,10,03,07,09,6.80
2012,10,03,07,10,6.90
2012,10,03,07,11,6.90
2012,10,03,07,12,6.90
2012,10,03,07,13,6.90
2012,10,03,07,14,6.90
2012,10,03,07,15,6.90
2012,10,03,07,16,6.90
2012,10,03,07,17,6.90
2012,10,03,07,18,6.90
2012,10,03,07,19,6.90
2012,10,03,07,20,6.90
2012,10,03,07,21,6.90
2012,10,03,07,22,6.90
2012,10,03,07,23,6.90
2012,10,03,07,24,7.00
2012,10,03,07,25,7.00
2012,10,03,07,26,7.00
2012,10,03,07,27,7.00
2012,10,03,07,28,7.00
2012,10,03,07,29,7.00
2012,10,03,07,30,7.00
2012,10,03,07,31,7.00
2012,10,03,07,32,7.00
2012,10,03,07,33,6.90
2012,10,03,07,34,6.90
2012,10,03,07,35,6.90
2012,10,03,07,36,6.80
2012,10,03,07,37,6.80
2012,10,03,07,38,6.80
2012,10,03,07,39,6.80
2012,10,03,07,40,6.70
2012,10,03,07,41,6.70
2012,10,03,07,42,6.70
2012,10,03,07,43,6.70
2012,10,03,07,44,6.70
2012,10,03,07,45,6.80
2012,10,03,07,46,6.80
2012,10,03,07,47,6.80
2012,10,03,07,48,6.80
2012,10,03,07,49,6.90
2012,10,03,07,50,6.90
2012,10,03,07,51,7.00
2012,10,03,07,52,7.00
2012,10,03,07,53,7.00
2012,10,03,07,54,7.10
2012,10,03,07,55,7.10
2012,10,03,07,56,7.10
2012,10,03,07,57,7.20
2012,10,03,07,58,7.20
2012,10,03,07,59,7.20
2012,10,03,08,00,7.30
2012,10,03,08,01,7.30
2012,10,03,08,02,7.40
2012,10,03,08,03,7.50
2012,10,03,08,04,7.60
2012,10,03,08,05,7.60
2012,10,03,08,06,7.70
2012,10,03,08,07,7.70
2012,10,03,08,08,7.70
2012,10,03,08,09,7.80
2012,10,03,08,10,7.80
2012,10,03,08,11,7.80
2012,10,03,08,12,7.80
2012,10,03,08,13,7.80
2012,10,03,08,14,7.90
2012,10,03,08,15,7.90
2012,10,03,08,16,7.90
2012,10,03,08,17,7.90
2012,10,03,08,18,8.00
2012,10,03,08,19,8.10
2012,10,03,08,20,8.10
2012,10,03,08,21,8.20
2012,10,03,08,22,8.20
2012,10,03,08,23,8.30
2012,10,03,08,24,8.30
2012,10,03,08,25,8.40
2012,10,03,08,26,8.50
2012,10,03,08,27,8.50
2012,10,03,08,28,8.60
2012,10,03,08,29,8.70
2012,10,03,08,30,8.80
2012,10,03,08,31,8.90
2012,10,03,08,32,9.00
2012,10,03,08,33,9.10
2012,10,03,08,34,9.10
2012,10,03,08,35,9.20
2012,10,03,08,36,9.40
2012,10,03,08,37,9.50
2012,10,03,08,38,9.60
2012,10,03,08,39,9.70
2012,10,03,08,40,9.80
2012,10,03,08,41,9.90
2012,10,03,08,42,10.00
2012,10,03,08,43,10.10
2012,10,03,08,44,10.10
2012,10,03,08,45,10.20
2012,10,03,08,46,10.20
2012,10,03,08,47,10.30
2012,10,03,08,48,10.30
2012,10,03,08,49,10.40
2012,10,03,08,50,10.50
2012,10,03,08,51,10.50
2012,10,03,08,52,10.60
2012,10,03,08,53,10.60
2012,10,03,08,54,10.70
2012,10,03,08,55,10.80
2012,10,03,08,56,10.80
2012,10,03,08,57,10.90
2012,10,03,08,58,10.90
2012,10,03,08,59,11.00
2012,10,03,09,00,11.10
2012,10,03,09,01,11.10
2012,10,03,09,02,11.20
2012,10,03,09,03,11.30
2012,10,03,09,04,11.30
2012,10,03,09,05,11.40
2012,10,03,09,06,11.40
2012,10,03,09,07,11.50
2012,10,03,09,08,11.50
2012,10,03,09,09,11.60
2012,10,03,09,10,11.60
2012,10,03,09,11,11.70
2012,10,03,09,12,11.70
2012,10,03,09,13,11.70
2012,10,03,09,14,11.80
2012,10,03,09,15,11.80
2012,10,03,09,16,11.90
2012,10,03,09,17,11.90
2012,10,03,09,18,11.90
2012,10,03,09,19,12.00
2012,10,03,09,20,12.00
2012,10,03,09,21,12.10
2012,10,03,09,22,12.10
2012,10,03,09,23,12.20
2012,10,03,09,24,12.20
2012,10,03,09,25,12.20
2012,10,03,09,26,12.30
2012,10,03,09,27,12.30
2012,10,03,09,28,12.30
2012,10,03,09,29,12.30
2012,10,03,09,30,12.30
2012,10,03,09,31,12.40
2012,10,03,09,32,12.40
2012,10,03,09,33,12.40
2012,10,03,09,34,12.40
2012,10,03,09,35,12.50
2012,10,03,09,36,12.50
2012,10,03,09,37,12.50
2012,10,03,09,38,12.60
2012,10,03,09,39,12.60
2012,10,03,09,40,12.60
2012,10,03,09,41,12.70
2012,10,03,09,42,12.70
2012,10,03,09,43,12.80
2012,10,03,09,44,12.80
2012,10,03,09,45,12.80
2012,10,03,09,46,12.90
2012,10,03,09,47,12.90
2012,10,03,09,48,12.90
2012,10,03,09,49,13.00
2012,10,03,09,50,13.00
2012,10,03,09,51,13.00
2012,10,03,09,52,13.10
2012,10,03,09,53,13.10
2012,10,03,09,54,13.10
2012,10,03,09,55,13.10
2012,10,03,09,56,13.10
2012,10,03,09,57,13.10
2012,10,03,09,58,13.20
2012,10,03,09,59,13.20
2012,10,03,10,00,13.20
2012,10,03,10,01,13.30
2012,10,03,10,02,13.30
2012,10,03,10,03,13.30
2012,10,03,10,04,13.30
2012,10,03,10,05,13.30
2012,10,03,10,06,13.30
2012,10,03,10,07,13.30
2012,10,03,10,08,13.40
2012,10,03,10,09,13.40
2012,10,03,10,10,13.40
2012,10,03,10,11,13.40
2012,10,03,10,12,13.40
2012,10,03,10,13,13.50
2012,10,03,10,14,13.40
2012,10,03,10,15,13.40
2012,10,03,10,16,13.40
2012,10,03,10,17,13.40
2012,10,03,10,18,13.40
2012,10,03,10,19,13.50
2012,10,03,10,20,13.50
2012,10,03,10,21,13.50
2012,10,03,10,22,13.60
2012,10,03,10,23,13.60
2012,10,03,10,24,13.50
2012,10,03,10,25,13.50
2012,10,03,10,26,13.50
2012,10,03,10,27,13.50
2012,10,03,10,28,13.60
2012,10,03,10,29,13.60
2012,10,03,10,30,13.60
2012,10,03,10,31,13.60
2012,10,03,10,32,13.60
2012,10,03,10,33,13.70
2012,10,03,10,34,13.70
2012,10,03,10,35,13.70
2012,10,03,10,36,13.70
2012,10,03,10,37,13.70
2012,10,03,10,38,13.70
2012,10,03,10,39,13.70
2012,10,03,10,40,13.70
2012,10,03,10,41,13.70
2012,10,03,10,42,13.70
2012,10,03,10,43,13.80
2012,10,03,10,44,13.80
2012,10,03,10,45,13.70
2012,10,03,10,46,13.70
2012,10,03,10,47,13.70
2012,10,03,10,48,13.80
2012,10,03,10,49,13.80
2012,10,03,10,50,13.80
2012,10,03,10,51,13.80
2012,10,03,10,52,13.80
2012,10,03,10,53,13.80
2012,10,03,10,54,13.80
2012,10,03,10,55,13.90
2012,10,03,10,56,13.90
2012,10,03,10,57,13.90
2012,10,03,10,58,13.80
2012,10,03,10,59,13.80
2012,10,03,11,00,13.80
2012,10,03,11,01,13.80
2012,10,03,11,02,13.80
2012,10,03,11,03,13.90
2012,10,03,11,04,13.90
2012,10,03,11,05,13.90
2012,10,03,11,06,13.90
2012,10,03,11,07,13.90
2012,10,03,11,08,13.90
2012,10,03,11,09,13.90
2012,10,03,11,10,14.00
2012,10,03,11,11,13.90
2012,10,03,11,12,13.90
2012,10,03,11,13,13.90
2012,10,03,11,14,13.90
2012,10,03,11,15,13.90
2012,10,03,11,16,13.90
2012,10,03,11,17,13.90
2012,10,03,11,18,13.80
2012,10,03,11,19,13.80
2012,10,03,11,20,13.80
2012,10,03,11,21,13.80
2012,10,03,11,22,13.90
2012,10,03,11,23,14.00
2012,10,03,11,24,14.10
2012,10,03,11,25,14.10
2012,10,03,11,26,14.00
2012,10,03,11,27,14.10
2012,10,03,11,28,14.10
2012,10,03,11,29,14.10
2012,10,03,11,30,14.20
2012,10,03,11,31,14.20
2012,10,03,11,32,14.20
2012,10,03,11,33,14.20
2012,10,03,11,34,14.10
2012,10,03,11,35,14.20
2012,10,03,11,36,14.20
2012,10,03,11,37,14.20
2012,10,03,11,38,14.20
2012,10,03,11,39,14.20
2012,10,03,11,40,14.20
2012,10,03,11,41,14.20
2012,10,03,11,42,14.20
2012,10,03,11,43,14.20
2012,10,03,11,44,14.20
2012,10,03,11,45,14.20
2012,10,03,11,46,14.20
2012,10,03,11,47,14.20
2012,10,03,11,48,14.10
2012,10,03,11,49,14.10
2012,10,03,11,50,14.10
2012,10,03,11,51,14.20
2012,10,03,11,52,14.20
2012,10,03,11,53,14.20
2012,10,03,11,54,14.30
2012,10,03,11,55,14.20
2012,10,03,11,56,14.20
2012,10,03,11,57,14.20
2012,10,03,11,58,14.30
2012,10,03,11,59,14.30
2012,10,03,12,00,14.30
2012,10,03,12,01,14.40
2012,10,03,12,02,14.40
2012,10,03,12,03,14.40
2012,10,03,12,04,14.40
2012,10,03,12,05,14.30
2012,10,03,12,06,14.30
2012,10,03,12,07,14.30
2012,10,03,12,08,14.40
2012,10,03,12,09,14.40
2012,10,03,12,10,14.40
2012,10,03,12,11,14.30
2012,10,03,12,12,14.30
2012,10,03,12,13,14.40
2012,10,03,12,14,14.40
2012,10,03,12,15,14.50
2012,10,03,12,16,14.50
2012,10,03,12,17,14.60
2012,10,03,12,18,14.70
2012,10,03,12,19,14.70
2012,10,03,12,20,14.80
2012,10,03,12,21,14.80
2012,10,03,12,22,14.80
2012,10,03,12,23,14.80
2012,10,03,12,24,14.90
2012,10,03,12,25,14.80
2012,10,03,12,26,14.80
2012,10,03,12,27,14.80
2012,10,03,12,28,14.80
2012,10,03,12,29,14.80
2012,10,03,12,30,14.70
2012,10,03,12,31,14.70
2012,10,03,12,32,14.70
2012,10,03,12,33,14.70
2012,10,03,12,34,14.70
2012,10,03,12,35,14.70
2012,10,03,12,36,14.70
2012,10,03,12,37,14.70
2012,10,03,12,38,14.70
2012,10,03,12,39,14.70
2012,10,03,12,40,14.70
2012,10,03,12,41,14.70
2012,10,03,12,42,14.80
2012,10,03,12,43,14.80
2012,10,03,12,44,14.70
2012,10,03,12,45,14.70
2012,10,03,12,46,14.70
2012,10,03,12,47,14.80
2012,10,03,12,48,14.80
2012,10,03,12,49,14.80
2012,10,03,12,50,14.80
2012,10,03,12,51,14.90
2012,10,03,12,52,14.90
2012,10,03,12,53,15.00
2012,10,03,12,54,15.00
2012,10,03,12,55,15.10
2012,10,03,12,56,15.10
2012,10,03,12,57,15.10
2012,10,03,12,58,15.10
2012,10,03,12,59,15.10
2012,10,03,13,00,15.10
2012,10,03,13,01,15.10
2012,10,03,13,02,15.10
2012,10,03,13,03,15.10
2012,10,03,13,04,15.10
2012,10,03,13,05,15.10
2012,10,03,13,06,15.10
2012,10,03,13,07,15.00
2012,10,03,13,08,15.00
2012,10,03,13,09,14.90
2012,10,03,13,10,14.90
2012,10,03,13,11,14.80
2012,10,03,13,12,14.80
2012,10,03,13,13,14.80
2012,10,03,13,14,14.90
2012,10,03,13,15,14.90
2012,10,03,13,16,14.90
2012,10,03,13,17,14.90
2012,10,03,13,18,14.90
2012,10,03,13,19,14.90
2012,10,03,13,20,14.80
2012,10,03,13,21,14.80
2012,10,03,13,22,14.80
2012,10,03,13,23,14.80
2012,10,03,13,24,14.90
2012,10,03,13,25,14.90
2012,10,03,13,26,14.90
2012,10,03,13,27,15.00
2012,10,03,13,28,15.00
2012,10,03,13,29,15.10
2012,10,03,13,30,15.10
2012,10,03,13,31,15.20
2012,10,03,13,32,15.20
2012,10,03,13,33,15.30
2012,10,03,13,34,15.30
2012,10,03,13,35,15.30
2012,10,03,13,36,15.30
2012,10,03,13,37,15.30
2012,10,03,13,38,15.20
2012,10,03,13,39,15.20
2012,10,03,13,40,15.20
2012,10,03,13,41,15.30
2012,10,03,13,42,15.30
2012,10,03,13,43,15.30
2012,10,03,13,44,15.40
2012,10,03,13,45,15.40
2012,10,03,13,46,15.40
2012,10,03,13,47,15.40
2012,10,03,13,48,15.50
2012,10,03,13,49,15.50
2012,10,03,13,50,15.50
2012,10,03,13,51,15.50
2012,10,03,13,52,15.50
2012,10,03,13,53,15.50
2012,10,03,13,54,15.50
2012,10,03,13,55,15.40
2012,10,03,13,56,15.40
2012,10,03,13,57,15.40
2012,10,03,13,58,15.40
2012,10,03,13,59,15.30
2012,10,03,14,00,15.30
2012,10,03,14,01,15.30
2012,10,03,14,02,15.30
2012,10,03,14,03,15.30
2012,10,03,14,04,15.30
2012,10,03,14,05,15.30
2012,10,03,14,06,15.30
2012,10,03,14,07,15.30
2012,10,03,14,08,15.40
2012,10,03,14,09,15.40
2012,10,03,14,10,15.40
2012,10,03,14,11,15.50
2012,10,03,14,12,15.50
2012,10,03,14,13,15.50
2012,10,03,14,14,15.60
2012,10,03,14,15,15.60
2012,10,03,14,16,15.60
2012,10,03,14,17,15.60
2012,10,03,14,18,15.60
2012,10,03,14,19,15.60
2012,10,03,14,20,15.60
2012,10,03,14,21,15.60
2012,10,03,14,22,15.60
2012,10,03,14,23,15.60
2012,10,03,14,24,15.70
2012,10,03,14,25,15.70
2012,10,03,14,26,15.70
2012,10,03,14,27,15.70
2012,10,03,14,28,15.80
2012,10,03,14,29,15.80
2012,10,03,14,30,15.80
2012,10,03,14,31,15.90
2012,10,03,14,32,15.90
2012,10,03,14,33,15.90
2012,10,03,14,34,15.90
2012,10,03,14,35,15.90
2012,10,03,14,36,15.90
2012,10,03,14,37,15.80
2012,10,03,14,38,15.80
2012,10,03,14,39,15.70
2012,10,03,14,40,15.70
2012,10,03,14,41,15.70
2012,10,03,14,42,15.70
2012,10,03,14,43,15.70
2012,10,03,14,44,15.70
2012,10,03,14,45,15.70
2012,10,03,14,46,15.80
2012,10,03,14,47,15.80
2012,10,03,14,48,15.80
2012,10,03,14,49,15.80
2012,10,03,14,50,15.80
2012,10,03,14,51,15.80
2012,10,03,14,52,15.90
2012,10,03,14,53,15.90
2012,10,03,14,54,15.80
2012,10,03,14,55,15.90
2012,10,03,14,56,15.90
2012,10,03,14,57,15.80
2012,10,03,14,58,15.80
2012,10,03,14,59,15.80
2012,10,03,15,00,15.90
2012,10,03,15,01,15.90
2012,10,03,15,02,15.90
2012,10,03,15,03,15.90
2012,10,03,15,04,15.90
2012,10,03,15,05,15.90
2012,10,03,15,06,15.90
2012,10,03,15,07,15.90
2012,10,03,15,08,16.00
2012,10,03,15,09,16.00
2012,10,03,15,10,16.00
2012,10,03,15,11,16.10
2012,10,03,15,12,16.10
2012,10,03,15,13,16.20
2012,10,03,15,14,16.20
2012,10,03,15,15,16.20
2012,10,03,15,16,16.30
2012,10,03,15,17,16.30
2012,10,03,15,18,16.30
2012,10,03,15,19,16.40
2012,10,03,15,20,16.40
2012,10,03,15,21,16.40
2012,10,03,15,22,16.40
2012,10,03,15,23,16.40
2012,10,03,15,24,16.40
2012,10,03,15,25,16.40
2012,10,03,15,26,16.40
2012,10,03,15,27,16.40
2012,10,03,15,28,16.30
2012,10,03,15,29,16.30
2012,10,03,15,30,16.20
2012,10,03,15,31,16.20
2012,10,03,15,32,16.20
2012,10,03,15,33,16.20
2012,10,03,15,34,16.20
2012,10,03,15,35,16.20
2012,10,03,15,36,16.20
2012,10,03,15,37,16.30
2012,10,03,15,38,16.30
2012,10,03,15,39,16.30
2012,10,03,15,40,16.20
2012,10,03,15,41,16.20
2012,10,03,15,42,16.20
2012,10,03,15,43,16.20
2012,10,03,15,44,16.30
2012,10,03,15,45,16.30
2012,10,03,15,46,16.30
2012,10,03,15,47,16.40
2012,10,03,15,48,16.40
2012,10,03,15,49,16.50
2012,10,03,15,50,16.50
2012,10,03,15,51,16.50
2012,10,03,15,52,16.50
2012,10,03,15,53,16.40
2012,10,03,15,54,16.40
2012,10,03,15,55,16.40
2012,10,03,15,56,16.30
2012,10,03,15,57,16.30
2012,10,03,15,58,16.40
2012,10,03,15,59,16.40
2012,10,03,16,00,16.40
2012,10,03,16,01,16.40
2012,10,03,16,02,16.40
2012,10,03,16,03,16.50
2012,10,03,16,04,16.50
2012,10,03,16,05,16.50
2012,10,03,16,06,16.50
2012,10,03,16,07,16.60
2012,10,03,16,08,16.50
2012,10,03,16,09,16.50
2012,10,03,16,10,16.50
2012,10,03,16,11,16.50
2012,10,03,16,12,16.50
2012,10,03,16,13,16.50
2012,10,03,16,14,16.50
2012,10,03,16,15,16.50
2012,10,03,16,16,16.60
2012,10,03,16,17,16.60
2012,10,03,16,18,16.60
2012,10,03,16,19,16.60
2012,10,03,16,20,16.60
2012,10,03,16,21,16.60
2012,10,03,16,22,16.50
2012,10,03,16,23,16.50
2012,10,03,16,24,16.60
2012,10,03,16,25,16.50
2012,10,03,16,26,16.50
2012,10,03,16,27,16.50
2012,10,03,16,28,16.40
2012,10,03,16,29,16.40
2012,10,03,16,30,16.40
2012,10,03,16,31,16.40
2012,10,03,16,32,16.50
2012,10,03,16,33,16.50
2012,10,03,16,34,16.50
2012,10,03,16,35,16.60
2012,10,03,16,36,16.60
2012,10,03,16,37,16.60
2012,10,03,16,38,16.60
2012,10,03,16,39,16.60
2012,10,03,16,40,16.60
2012,10,03,16,41,16.60
2012,10,03,16,42,16.60
2012,10,03,16,43,16.60
2012,10,03,16,44,16.60
2012,10,03,16,45,16.70
2012,10,03,16,46,16.70
2012,10,03,16,47,16.70
2012,10,03,16,48,16.80
2012,10,03,16,49,16.80
2012,10,03,16,50,16.80
2012,10,03,16,51,16.70
2012,10,03,16,52,16.70
2012,10,03,16,53,16.70
2012,10,03,16,54,16.70
2012,10,03,16,55,16.80
2012,10,03,16,56,16.80
2012,10,03,16,57,16.80
2012,10,03,16,58,16.80
2012,10,03,16,59,16.80
2012,10,03,17,00,16.80
2012,10,03,17,01,16.80
2012,10,03,17,02,16.80
2012,10,03,17,03,16.80
2012,10,03,17,04,16.80
2012,10,03,17,05,16.80
2012,10,03,17,06,16.80
2012,10,03,17,07,16.80
2012,10,03,17,08,16.80
2012,10,03,17,09,16.80
2012,10,03,17,10,16.80
2012,10,03,17,11,16.80
2012,10,03,17,12,16.80
2012,10,03,17,13,16.80
2012,10,03,17,14,16.80
2012,10,03,17,15,16.80
2012,10,03,17,16,16.80
2012,10,03,17,17,16.80
2012,10,03,17,18,16.80
2012,10,03,17,19,16.80
2012,10,03,17,20,16.80
2012,10,03,17,21,16.80
2012,10,03,17,22,16.80
2012,10,03,17,23,16.70
2012,10,03,17,24,16.70
2012,10,03,17,25,16.70
2012,10,03,17,26,16.70
2012,10,03,17,27,16.60
2012,10,03,17,28,16.60
2012,10,03,17,29,16.60
2012,10,03,17,30,16.60
2012,10,03,17,31,16.60
2012,10,03,17,32,16.60
2012,10,03,17,33,16.60
2012,10,03,17,34,16.50
2012,10,03,17,35,16.50
2012,10,03,17,36,16.50
2012,10,03,17,37,16.50
2012,10,03,17,38,16.40
2012,10,03,17,39,16.40
2012,10,03,17,40,16.40